EW9904 Weather Reports


Display with metric or nautical units.
time (UTC)temp
F
wind
direction
speed
MPH
gust
MPH
rain 1hr
in
rain 24hr
in
rain mn
in
humidity
%
barometer
mb
20220930223001 61 94 8.0 13.0 0.01 0.02 0.02 88 1017.7
20220930222500 61 69 8.0 13.0 0.01 0.02 0.02 87 1017.7
20220930222001 61 80 8.0 14.0 0.01 0.02 0.02 87 1017.9
20220930221501 61 66 8.0 14.0 0.01 0.02 0.02 87 1018.1
20220930221002 61 71 8.0 13.0 0.01 0.02 0.02 86 1018.1
20220930215500 62 78 7.0 12.0 0.00 0.01 0.01 84 1018.6
20220930215000 62 57 7.0 12.0 0.01 0.01 0.01 83 1018.9
20220930214001 62 75 8.0 13.0 0.01 0.01 0.01 83 1019.0
20220930213002 62 87 7.0 13.0 0.01 0.01 0.01 85 1019.0
20220930212500 62 86 8.0 14.0 0.01 0.01 0.01 85 1019.0
20220930212001 62 87 7.0 14.0 0.01 0.01 0.01 85 1018.9
20220930211459 62 98 7.0 14.0 0.01 0.01 0.01 85 1019.2
20220930211003 62 73 8.0 13.0 0.01 0.01 0.01 85 1019.4
20220930210500 62 74 9.0 14.0 0.01 0.01 0.01 85 1019.2
20220930205459 62 61 8.0 14.0 0.01 0.01 0.01 84 1019.5
20220930204459 63 102 9.0 17.0 0.00 0.00 0.00 82 1019.8
20220930204001 63 84 9.0 13.0 0.00 0.00 0.00 80 1019.8
20220930203500 63 80 8.0 13.0 0.00 0.00 0.00 79 1019.8
20220930203001 63 90 9.0 15.0 0.00 0.00 0.00 79 1019.6
20220930202501 64 47 9.0 15.0 0.00 0.00 0.00 78 1019.7
20220930202002 64 86 9.0 16.0 0.00 0.00 0.00 78 1019.8
20220930201459 64 82 10.0 16.0 0.00 0.00 0.00 78 1019.6
20220930200002 64 45 8.0 14.0 0.00 0.00 0.00 78 1020.0
20220930195459 64 90 8.0 14.0 0.00 0.00 0.00 78 1020.1
20220930195001 64 111 9.0 16.0 0.00 0.00 0.00 78 1020.0
20220930194001 64 93 7.0 13.0 0.00 0.00 0.00 78 1019.9
20220930193459 64 81 8.0 14.0 0.00 0.00 0.00 78 1020.0
20220930193001 64 89 9.0 16.0 0.00 0.00 0.00 78 1020.0
20220930192501 64 56 9.0 14.0 0.00 0.00 0.00 78 1019.9
20220930191503 63 70 8.0 16.0 0.00 0.00 0.00 79 1020.1
20220930191002 63 61 8.0 14.0 0.00 0.00 0.00 80 1020.2
20220930190501 63 85 9.0 14.0 0.00 0.00 0.00 80 1020.1
20220930190003 63 51 8.0 15.0 0.00 0.00 0.00 81 1020.2
20220930185500 63 40 8.0 13.0 0.00 0.00 0.00 81 1020.3
20220930184501 63 96 8.0 13.0 0.00 0.00 0.00 80 1020.6
20220930184003 63 74 7.0 13.0 0.00 0.00 0.00 81 1020.7
20220930183459 63 87 7.0 13.0 0.00 0.00 0.00 80 1020.8
20220930183002 63 78 7.0 13.0 0.00 0.00 0.00 79 1021.0
20220930182500 63 96 7.0 13.0 0.00 0.00 0.00 80 1021.0
20220930182002 63 74 7.0 11.0 0.00 0.00 0.00 79 1021.1
20220930181459 63 84 7.0 11.0 0.00 0.00 0.00 78 1021.3
20220930181002 63 51 7.0 13.0 0.00 0.00 0.00 78 1021.5
20220930180501 63 73 7.0 13.0 0.00 0.00 0.00 78 1021.6
20220930180002 64 61 8.0 13.0 0.00 0.00 0.00 77 1021.7
20220930175459 64 84 8.0 14.0 0.00 0.00 0.00 76 1021.8
20220930175000 64 121 8.0 14.0 0.00 0.00 0.00 76 1021.7
20220930174459 64 136 7.0 17.0 0.00 0.00 0.00 75 1021.7
20220930174001 64 75 8.0 17.0 0.00 0.00 0.00 75 1021.7
20220930173500 64 53 8.0 15.0 0.00 0.00 0.00 75 1021.7
20220930173001 64 84 8.0 19.0 0.00 0.00 0.00 75 1021.6
20220930172503 64 51 7.0 19.0 0.00 0.00 0.00 75 1021.6
20220930171001 64 57 8.0 16.0 0.00 0.00 0.00 76 1021.5
20220930170459 64 132 6.0 12.0 0.00 0.00 0.00 76 1021.7
20220930170005 64 68 7.0 12.0 0.00 0.00 0.00 75 1021.8
20220930165500 65 121 8.0 11.0 0.00 0.00 0.00 74 1021.7
20220930164501 65 52 8.0 18.0 0.00 0.00 0.00 71 1021.6
20220930164001 65 59 8.0 25.0 0.00 0.00 0.00 69 1021.5
20220930163003 65 88 9.0 14.0 0.00 0.00 0.00 68 1021.6
20220930162500 65 94 9.0 13.0 0.00 0.00 0.00 69 1021.8
20220930161459 65 52 8.0 14.0 0.00 0.00 0.00 71 1021.9
20220930161001 65 74 7.0 13.0 0.00 0.00 0.00 70 1021.9
20220930160459 65 49 7.0 13.0 0.00 0.00 0.00 69 1021.9
20220930155501 65 54 8.0 17.0 0.00 0.00 0.00 70 1022.2
20220930154501 65 86 7.0 14.0 0.00 0.00 0.00 69 1022.4
20220930154001 66 78 8.0 14.0 0.00 0.00 0.00 69 1022.3
20220930153500 66 71 7.0 15.0 0.00 0.00 0.00 68 1022.5
20220930153002 66 53 7.0 15.0 0.00 0.00 0.00 69 1022.6
20220930151459 66 86 7.0 13.0 0.00 0.00 0.00 69 1022.7
20220930150500 66 55 7.0 13.0 0.00 0.00 0.00 70 1022.6
20220930145459 65 87 8.0 13.0 0.00 0.00 0.00 70 1022.7
20220930145001 65 56 7.0 13.0 0.00 0.00 0.00 71 1022.7
20220930144459 64 117 5.0 12.0 0.00 0.00 0.00 76 1022.9
20220930144002 64 78 4.0 9.0 0.00 0.00 0.00 79 1023.1
20220930143002 64 46 5.0 10.0 0.00 0.00 0.00 79 1023.1
20220930142501 64 52 4.0 10.0 0.00 0.00 0.00 79 1023.2
20220930142001 64 100 4.0 8.0 0.00 0.00 0.00 79 1023.3
20220930141459 64 82 4.0 9.0 0.00 0.00 0.00 79 1023.3
20220930141002 64 83 4.0 9.0 0.00 0.00 0.00 79 1023.3
20220930133002 63 48 4.0 7.0 0.00 0.00 0.00 81 1023.5
20220930132500 62 67 5.0 9.0 0.00 0.00 0.00 81 1023.5
20220930132001 62 51 5.0 9.0 0.00 0.00 0.00 81 1023.6
20220930131001 62 70 4.0 9.0 0.00 0.00 0.00 81 1023.5
20220930130501 62 63 4.0 9.0 0.00 0.00 0.00 82 1023.5
20220930130002 62 54 4.0 9.0 0.00 0.00 0.00 83 1023.5
20220930125500 62 59 4.0 6.0 0.00 0.00 0.00 83 1023.6
20220930125000 62 55 4.0 7.0 0.00 0.00 0.00 83 1023.6
20220930124001 62 63 3.0 6.0 0.00 0.00 0.00 83 1023.6
20220930123459 61 69 4.0 5.0 0.00 0.00 0.00 84 1023.4
20220930122009 61 64 4.0 6.0 0.00 0.00 0.00 84 1023.4
20220930121009 61 62 4.0 7.0 0.00 0.00 0.00 84 1023.4
20220930114510 60 55 4.0 7.0 0.00 0.00 0.00 85 1023.2
20220930110010 60 67 5.0 9.0 0.00 0.00 0.00 85 1023.2
20220930105510 60 67 5.0 9.0 0.00 0.00 0.00 85 1023.1
20220930105009 60 62 5.0 9.0 0.00 0.00 0.00 85 1023.0
20220930104509 60 88 5.0 10.0 0.00 0.00 0.00 85 1023.1
20220930104009 60 57 5.0 10.0 0.00 0.00 0.00 84 1023.1
20220930103510 60 63 5.0 10.0 0.00 0.00 0.00 84 1023.0
20220930103009 60 59 5.0 10.0 0.00 0.00 0.00 84 1023.0
20220930102009 60 51 5.0 10.0 0.00 0.00 0.00 84 1023.0
20220930101512 60 80 4.0 9.0 0.00 0.00 0.00 84 1023.1
20220930100510 61 58 4.0 7.0 0.00 0.00 0.00 84 1023.1
20220930095009 61 59 4.0 7.0 0.00 0.00 0.00 83 1023.0
20220930094509 61 59 4.0 9.0 0.00 0.00 0.00 83 1023.1
20220930094017 60 61 5.0 9.0 0.00 0.00 0.00 83 1023.1
20220930093509 60 57 5.0 9.0 0.00 0.00 0.00 83 1023.2
20220930092509 60 72 4.0 7.0 0.00 0.00 0.00 83 1023.3
20220930092009 60 67 4.0 7.0 0.00 0.00 0.00 82 1023.2
20220930091511 60 65 4.0 6.0 0.00 0.00 0.00 82 1023.2
20220930091009 60 59 4.0 6.0 0.00 0.00 0.00 82 1023.2
20220930090509 60 53 4.0 6.0 0.00 0.00 0.00 81 1023.3
20220930085009 60 59 4.0 7.0 0.00 0.00 0.00 81 1023.1
20220930084509 60 59 4.0 7.0 0.00 0.00 0.00 81 1023.0
20220930084009 60 65 4.0 7.0 0.00 0.00 0.00 81 1023.0
20220930083508 60 53 4.0 9.0 0.00 0.00 0.00 82 1023.1
20220930083010 60 63 4.0 9.0 0.00 0.00 0.00 82 1023.0
20220930082508 60 60 4.0 7.0 0.00 0.00 0.00 82 1022.9
20220930082010 60 82 4.0 6.0 0.00 0.00 0.00 82 1022.9
20220930081509 60 85 4.0 10.0 0.00 0.00 0.00 81 1022.9
20220930075508 61 59 4.0 8.0 0.00 0.00 0.00 79 1022.9
20220930075009 61 127 4.0 7.0 0.00 0.00 0.00 79 1022.9
20220930074009 61 55 4.0 10.0 0.00 0.00 0.00 79 1022.9
20220930073509 61 78 4.0 8.0 0.00 0.00 0.00 79 1022.9
20220930073009 60 62 4.0 8.0 0.00 0.00 0.00 80 1022.8
20220930072508 60 65 4.0 6.0 0.00 0.00 0.00 80 1022.9
20220930072009 60 63 4.0 6.0 0.00 0.00 0.00 81 1023.0
20220930071508 60 71 4.0 7.0 0.00 0.00 0.00 81 1023.1
20220930065512 61 72 4.0 6.0 0.00 0.00 0.00 80 1023.3
20220930065019 61 61 5.0 9.0 0.00 0.00 0.00 79 1023.3
20220930064512 61 57 5.0 10.0 0.00 0.00 0.00 79 1023.5
20220930063019 61 71 4.0 9.0 0.00 0.00 0.00 77 1023.7
20220930061512 61 74 4.0 9.0 0.00 0.00 0.00 77 1023.9
20220930055019 61 56 5.0 7.0 0.00 0.00 0.00 76 1024.1
20220930054512 61 66 4.0 7.0 0.00 0.00 0.00 77 1024.2
20220930054018 61 94 4.0 8.0 0.00 0.00 0.00 77 1024.3
20220930053512 61 60 4.0 7.0 0.00 0.00 0.00 78 1024.4
20220930053021 61 67 4.0 6.0 0.00 0.00 0.00 78 1024.4
20220930052514 61 70 4.0 6.0 0.00 0.00 0.00 78 1024.4
20220930051019 61 59 4.0 6.0 0.00 0.00 0.00 77 1024.6
20220930050021 61 60 3.0 6.0 0.00 0.00 0.00 76 1024.7
20220930044021 61 61 4.0 6.0 0.00 0.00 0.00 75 1024.8
20220930043025 61 67 3.0 6.0 0.00 0.00 0.00 75 1024.7
20220930042023 61 61 4.0 6.0 0.00 0.00 0.00 75 1024.7
20220930041513 61 51 4.0 9.0 0.00 0.00 0.00 74 1024.7
20220930041026 61 69 4.0 9.0 0.00 0.00 0.00 74 1024.7
20220930040512 61 59 4.0 7.0 0.00 0.00 0.00 73 1024.7
20220930034512 61 63 4.0 7.0 0.00 0.00 0.00 72 1024.9
20220930034014 61 78 4.0 10.0 0.00 0.00 0.00 73 1025.0
20220930031026 61 66 4.0 8.0 0.00 0.00 0.00 74 1025.0
20220930030014 61 57 4.0 7.0 0.00 0.00 0.00 72 1025.0
20220930024512 61 65 4.0 7.0 0.00 0.00 0.00 71 1025.2
20220930022512 62 69 4.0 7.0 0.00 0.00 0.00 70 1025.4
20220930022020 62 64 4.0 9.0 0.00 0.00 0.00 70 1025.5
20220930021512 62 79 4.0 9.0 0.00 0.00 0.00 70 1025.5
20220930021022 62 80 5.0 7.0 0.00 0.00 0.00 70 1025.5
20220930020512 62 82 4.0 8.0 0.00 0.00 0.00 70 1025.5
20220930020029 62 77 4.0 9.0 0.00 0.00 0.00 71 1025.6
20220930015017 62 82 4.0 9.0 0.00 0.00 0.00 71 1025.5
20220930014512 62 88 5.0 10.0 0.00 0.00 0.00 71 1025.4
20220930013512 62 72 5.0 8.0 0.00 0.00 0.00 72 1025.4
20220930013023 62 86 5.0 10.0 0.00 0.00 0.00 73 1025.5
20220930012027 61 62 4.0 8.0 0.00 0.00 0.00 74 1025.5
20220930011023 61 84 4.0 7.0 0.00 0.00 0.00 74 1025.5
20220930010512 61 65 4.0 6.0 0.00 0.00 0.00 74 1025.3
20220930010022 61 66 4.0 7.0 0.00 0.00 0.00 73 1025.4
20220930005011 61 84 4.0 9.0 0.00 0.00 0.00 74 1025.6
20220930004510 61 78 4.0 9.0 0.00 0.00 0.00 74 1025.6
20220930003509 61 59 4.0 6.0 0.00 0.00 0.00 73 1025.6
20220930003011 62 82 4.0 7.0 0.00 0.00 0.00 73 1025.6
20220930002509 62 59 4.0 9.0 0.00 0.00 0.00 73 1025.6
20220930002017 61 64 3.0 9.0 0.00 0.00 0.00 74 1025.5
20220930001010 62 80 4.0 7.0 0.00 0.00 0.00 73 1025.5
20220930000012 62 59 3.0 5.0 0.00 0.00 0.00 73 1025.4
20220929235010 61 100 3.0 6.0 0.00 0.00 0.00 73 1025.6
20220929234509 62 69 4.0 6.0 0.00 0.00 0.00 73 1025.4
20220929234011 62 71 4.0 6.0 0.00 0.00 0.00 74 1025.4
20220929233509 62 79 3.0 6.0 0.00 0.00 0.00 73 1025.3
20220929233010 61 104 3.0 7.0 0.00 0.00 0.00 74 1025.3
20220929232509 61 67 3.0 4.0 0.00 0.00 0.00 74 1025.3
20220929231509 62 61 3.0 5.0 0.00 0.00 0.00 73 1025.2
20220929231010 62 61 3.0 8.0 0.00 0.00 0.00 73 1025.2
20220929230510 62 90 3.0 5.0 0.00 0.00 0.00 73 1025.2
20220929225011 62 45 3.0 6.0 0.00 0.00 0.00 73 1025.4
20220929224510 62 68 3.0 6.0 0.00 0.00 0.00 73 1025.5
20220929224010 62 95 3.0 5.0 0.00 0.00 0.00 72 1025.6
20220929223509 62 72 3.0 5.0 0.00 0.00 0.00 72 1025.5